Regional Weather Roundup
Issued by NWS Grand Forks, ND

Home | Current Version | Previous Version | Text Only | Print | Product List | Glossary Off
Versions: 1 2 3 4 5 6 7 8 9 10 11 12 13 14 15 16 17 18 19 20 21 22 23 24 25 26 27 28 29 30 31 32 33 34 35 36 37 38 39 40 41 42 43 44 45 46 47 48 49 50

000
ASUS43 KFGF 231510
RWRFGF
PRAIRIE TO PINES  WEATHER ROUNDUP
NATIONAL WEATHER SERVICE EASTERN NORTH DAKOTA/GRAND FORKS ND
1000 AM CDT MON APR 23 2018

 **SATELLITE DATA USED TO AUGMENT SKY COVER AT AUTOMATED STATIONS**
 *****  WEATHER ACROSS EASTERN NORTH DAKOTA  *****

CITY           SKY/WX    TMP DP  RH WIND       PRES   REMARKS
GRAND FORKS    FAIR      53  40  61 N15       30.19S
GRAND FRKS AFB FAIR      55  35  47 N16       30.19S
GRAND FRKS NWS   N/A     54  39  56 N10       30.16F
DEVILS LAKE    FAIR      49  36  61 N15       30.22S
FARGO          FAIR      54  40  59 SW8       30.19S
WAHPETON ARPT  PTSUNNY   52  37  58 CALM      30.22R
$$

 ***** WEATHER ACROSS CENTRAL AND WESTERN NORTH DAKOTA  *****

CITY           SKY/WX    TMP DP  RH WIND       PRES   REMARKS
BISMARCK       FAIR      56  31  38 NE16      30.21R
MINOT          FAIR      50  34  54 N13       30.25R
JAMESTOWN      FAIR      54  37  52 NE12      30.19R
MINOT AFB      FAIR      47  35  63 N12       30.24R
GARRISON         N/A     46  33  60 NE14G21   30.23R
WILLISTON      FAIR      44  34  67 N13       30.29R
DICKINSON      CLOUDY    47  28  47 NE15      30.20R
HETTINGER      FAIR      52  35  52 NE24      30.16S
$$

 *****  OTHER AIRPORT OBSERVATIONS IN OUR AREA  *****

CITY           SKY/WX    TMP DP  RH WIND       PRES   REMARKS
WALHALLA       FAIR      52  36  54 N13G20    30.20R
GRAFTON AIRPOR NOT AVBL
VALLEY CITY AR NOT AVBL
CANDO          FAIR      52  34  50 N10       30.24S
CAVALIER APRT    N/A     52  36  54 NW14      30.19S
GWINNER          N/A     50  43  76 NW9       30.21R
ROLLA          FAIR      46  36  66 N15       30.23R
 ***** THE ABOVE OBSERVATIONS ARE NON NWS ARE NOT QUALITY
       CONTROLLED AND MAY MIS-REPORT RAIN FOR SNOW...
$$

  *****  WEATHER ACROSS NORTHERN MINNESOTA  *****

CITY           SKY/WX    TMP DP  RH WIND       PRES   REMARKS
FLAG ISLAND    FAIR      45  34  65 NW10      30.14R
WARROAD        FAIR      54  39  58 W9G16     30.16S
ROSEAU         FAIR      52  41  66 W8        30.17R
HALLOCK        FAIR      54  37  54 N13G18    30.18F
THF RVR FALLS  FAIR      51  38  60 NW8       30.19F
BAUDETTE       FAIR      55  38  52 NW8       30.14S
WASKISH        PTSUNNY   50  39  66 SW14      30.17S
CROOKSTON      FAIR      48  41  76 N3        30.20S
STEPHEN NDAWN    N/A     52  37  58 N12         N/A
GREENBUSH NDAW   N/A     50  37  62 NW10        N/A
$$
  *****  WEATHER ACROSS CENTRAL AND WEST MINNESOTA  *****

CITY           SKY/WX    TMP DP  RH WIND       PRES   REMARKS
FOSSTON        FAIR      52  37  58 W8        30.20S
BEMIDJI        FAIR      56  37  48 SW9       30.17S
PARK RAPIDS    FAIR      57  38  48 W9        30.19F
ELBOW LAKE     FAIR      53  40  63 S8        30.22F
WADENA         FAIR      54  39  58 SW7       30.21S
DETROIT LAKES  FAIR      54  37  54 W7        30.21F
MOORHEAD       FAIR      48  39  71 S8        30.20F
FERGUS FALLS   FAIR      54  39  58 S6        30.20S
MORRIS MN      FAIR      54  43  66 S8        30.21F
STAPLES        FAIR      57  36  44 W6        30.21S
$$
  *****  WEATHER ELSEWHERE ACROSS MINNESOTA  *****

CITY           SKY/WX    TMP DP  RH WIND       PRES   REMARKS
DULUTH         FAIR      57  38  48 W15       30.21F
INTRNTL FALLS  FAIR      53  38  56 SW9       30.13F
ELY            CLOUDY    55  34  44 SW10      30.16F
CLOQUET        FAIR      57  34  41 SW12      30.21F
WHEATON        FAIR      52  39  62 SE5       30.23S
BRAINERD       FAIR      56  35  45 W9        30.22F
HIBBING        FAIR      55  33  43 VRB6      30.18F
ALEXANDRIA     FAIR      58  38  47 SW8       30.23S
SAINT CLOUD    FAIR      52  42  69 SE5       30.24S
MINNEAPOLIS    FAIR      57  33  40 SW3       30.24F
$$

  *****  WEATHER ACROSS SOUTH DAKOTA  *****

CITY           SKY/WX    TMP DP  RH WIND       PRES   REMARKS
SIOUX FALLS    FAIR      56  34  43 VRB5      30.21F
BROOKINGS      FAIR      52  38  58 S5        30.22S
WATERTOWN      FAIR      51  39  63 S5        30.20F
HURON            N/A     51  41  68 S6        30.19S
SISSETON         N/A     59  41  51 VRB7      30.19S
ABERDEEN       FAIR      53  42  66 S7        30.20F
MITCHELL       FAIR      53  42  66 S5        30.20S
PIERRE         FAIR      53  41  63 SE7       30.15S
MOBRIDGE       FAIR      53  39  59 SE8       30.14S
RAPID CITY     FAIR      49  41  74 VRB3      30.09S
$$

  *****  SOME WEATHER IN NEARBY STATES *****

CITY           SKY/WX    TMP DP  RH WIND       PRES   REMARKS
GLASGOW MT     CLOUDY    44  33  65 NW3       30.35R
GREAT FALLS MT CLOUDY    38  28  67 N10       30.37R
CHEYENNE WY    FAIR      55  38  52 S10       30.10S
SCOTTSBLUFF NE FAIR      48  41  76 SE9       30.10S
OMAHA NE       FAIR      59  33  37 N3        30.19F
DES MOINES IA  PTSUNNY   56  31  38 NE9       30.20F
DAVENPORT IA   FAIR      56  26  31 NE14      30.19F
CHICAGO IL     CLOUDY    51  28  41 NE14      30.19F
EAU CLAIRE WI  FAIR      55  27  34 S6        30.26F
LA CROSSE WI   FAIR      51  33  50 W7        30.26F
$$

  *****  SOME NATIONAL WEATHER *****

CITY           SKY/WX    TMP DP  RH WIND       PRES   REMARKS
LA GUARDIA NY  FAIR      56  27  32 NE13      30.49S
RALEIGH NC     CLOUDY    62  50  64 E9        30.32F
ATLANTA GA     HVY RAIN  61  61 100 E13       29.99F FOG
NEW ORLEANS LA FAIR      65  53  65 W10       30.02F
OKLAHOMA CITY  FAIR      60  46  59 N13       30.12S
ALBUQUERQUE NM FAIR      57  34  41 NW3       30.19R
SALT LAKE CITY FAIR      58  43  57 N5        30.13R
LOS ANGELES CA CLOUDY    58  55  90 NE6       30.02R FOG
BOISE ID       FAIR      42  26  53 NW7       30.24R
SEATTLE WA     FAIR      47  39  74 NE6       30.36R
$$

*** WEATHER ACROSS MANITOBA...SASKATCHEWAN AND ONTARIO ***
                ***ONTARIO***

CITY           SKY/WX    TMP DP  RH WIND       PRES   REMARKS
GERALDTON      CLOUDY    46  28  49 SW13      30.06F
THUNDER BAY    CLOUDY    52  28  40 E6        30.15F
SIOUX LOOKOUT  MOSUNNY   52  36  54 W9        30.04F
TORONTO        MOSUNNY   57  21  24 E9        30.38F
BIG TROUT LK   LGT RAIN  39  34  81 W15G26    29.80R
PICKLE LAKE    MOSUNNY   50  34  53 W16G28    29.93S
DRYDEN         SUNNY     52  36  54 W17       30.07S
KENORA         MOSUNNY   50  34  53 W14G21    30.11R
$$
                *** MANITOBA***

CITY           SKY/WX    TMP DP  RH WIND       PRES   REMARKS
BRANDON        MOSUNNY   45  36  70 W14       30.22R
DAUPHIN        SUNNY     46  36  66 W20       30.17S
ISLAND LAKE    CLOUDY    36  28  75 W14G22    29.95R
PILOT MOUND      N/A     46  32  57 NW10        N/A
THE PAS        FLURRIES  32  27  80 NW17G24   30.11R WCI  21
THOMPSON       FLURRIES  23  18  80 NW9G17    30.02R WCI  13
WINNIPEG       PTSUNNY   50  36  57 NW14G21   30.18S
LYNN LAKE      SNOW      16  14  93 N8G17     30.10R VSB 1/2 WCI   5
CHURCHILL      FLURRIES  19  16  86 NE29G37   30.00R WCI   1
GILLAM         LGT SNOW  25  19  80 N17G24    29.91R FOG     WCI  11
$$
                ***SASKATCHEWAN***

CITY           SKY/WX    TMP DP  RH WIND       PRES   REMARKS
ESTEVAN        CLOUDY    45  34  65 NW12      30.29R
KINDERSLEY     MOSUNNY   39  30  70 NW12      30.37R
LLOYDMINSTER   MOSUNNY   41  28  60 W10       30.34R
PRINCE ALBERT  MOSUNNY   41  30  65 NW20      30.28R
REGINA         PTSUNNY   43  34  70 NW17      30.31R
YORKTON        SUNNY     43  34  70 W15       30.23R
N. BATTLEFORD  SUNNY     43  27  52 W13       30.36R
LA RONGE       FLURRIES  32  28  86 NW13G20   30.21R WCI  22
SASKATOON      MOSUNNY   43  32  65 NW18      30.33R
SWIFT CURRENT  CLOUDY    39  32  75 NW12      30.35S
$$
NOTE: THESE ARE AUTOMATED STATIONS WITH LIMITED QUALITY CONTROL
      "FAIR" INDICATES FEW OR NO CLOUDS BELOW 12,000 FEET WITH NO
      SIGNIFICANT WEATHER AND/OR OBSTRUCTIONS TO VISIBILITY.
      SKY/WX - SKY CONDITION AND SIGNIFICANT WEATHER.
      TMP - AIR TEMPERATURE.    DP   - DEWPOINT TEMPERATURE.
      RH  - RELATIVE HUMIDITY.  PRES - PRESSURE.
      HX  - HEAT INDEX.         WCI  - WIND CHILL INDEX.
$




USA.gov is the U.S. government's official web portal to all federal, state and local government web resources and services.